Weather in Novoukrainka

Ukraine / Rovno District     50°36′08″N   25°31′31″E
temp.,
°C
wind,
m/s
gust,
m/s
humid.,
%
clouds,
%
prec.,
mm/h
press.,
hPa
HPBL,
m
9 may, sun
sun900:00+3w35890 0.0 102177
03:00+2w35920 0.0 102376
06:00+1w33920 0.0 102445
09:00+7w23712 0.0 1025329
12:00+12wsw23498 0.0 10241360
15:00+14wsw344516 0.0 10231941
18:00+15ssw14469 0.0 10231680
21:00+10ese33665 0.0 102327
10 may, mon
mon1000:00+8sse35735 0.0 102463
03:00+7sse36756 0.0 102483
06:00+6se410735 0.0 1024172
09:00+12sse6126264 0.0 1024441
12:00+16sse795242 0.0 10231016
15:00+18sse785013 0.0 10221302
18:00+18se686060 0.0 10211103
21:00+12ese4117725 0.0 1022225
11 may, tue
tue1100:00+10se5137547 0.0 1022285
03:00+9se513770 0.0 1022265
06:00+8ese513790 0.0 1022268
09:00+12se611670 0.0 1022461
12:00+17se79540 0.0 10211056
15:00+18ese78440 0.0 10191241
18:00+17ese58530 0.0 10181090
21:00+12ese410801 0.0 1018167
12 may, wed
wed1200:00+10ese412895 0.0 1017261
03:00+9ese38940 0.0 1016164
06:00+9e5119723 0.0 1015322
09:00+12ese710730 0.0 1014682
12:00+15e78595 0.0 10131287
15:00+15e885594 0.0 10121831
18:00+13ese786060 0.0 10111632
21:00+8e367921 0.0 1011102
13 may, thu
thu1300:00+7e49913 0.0 1010213
03:00+5e37951 0.0 1009132
06:00+5e410951 0.0 1008206
09:00+9ese61285100 0.0 1006541
12:00+11se61085100 0.0 1006806
15:00+10sse51094100 1.6 1006475
18:00+12sse6887100 0.1 1006601
21:00+11sse41092100 0.1 1006385